RH
37 35 34 37 38 40 36 29 26 25 24 26 24 25 32 44 58 89 89 92 95 84 83 89 86 78 71
100 100 100 98 100 100 93 81 82 78 77 88 84 83 83 84 88 90 85 93 82 87 78 82 74 76 77
100 100 100 100 100 100 100 100 100 100 100 98 93 96 96 94 95 94 98 89 86 83 83 77 76 79 74
88 96 100 100 100 100 100 100 100 100 100 98 100 99 100 94 100 100 100 96 91 87 85 86 86 77 74
80 81 82 84 92 89 92 99 100 100 100 93 92 99 100 100 99 91 100 100 96 89 84 81 80 83 90
89 89 91 90 89 89 87 90 75 94 97 100 100 100 100 100 98 92 98 99 93 95 96 90 86 99 85
95 98 98 100 100 97 90 100 100 92 99 96 98 93 94 100 100 99 93 97 100 100 98 100 77 80 92
97 95 99 100 78 72 87 94 99 87 96 86 94 100 98 100 100 99 90 96 100 100 100 100 100 84 100
70 74 100 91 72 62 78 60 76 78 80 95 95 98 86 84 86 92 94 100 99 100 96 98 90 85 74
100 100 100 100 100 84 80 81 80 72 78 82 76 66 59 74 80 81 92 79 88 87 79 86 65 74 69
74 82 84 77 76 67 59 52 44 52 61 67 73 84 76 75 81 74 82 91 96 100 74 76 71 66 63
62 63 73 81 79 77 78 75 67 62 68 79 69 78 80 92 96 91 83 89 70 88 96 82 78 75 76
62 68 69 72 76 79 81 80 81 92 97 88 75 66 64 64 69 77 82 81 86 76 75 82 74 74 82
54 54 59 60 63 64 62 65 70 72 73 72 66 70 76 86 83 88 84 84 88 95 81 82 95 93 85
38 42 46 45 46 49 50 53 52 55 64 66 57 51 55 62 71 77 82 90 92 86 80 96 98 94 90
64 64 65 64 61 64 67 68 69 71 74 80 83 88 92 97 98 93 75 67 66 85 83 79 87 84 93
66 68 64 66 70 67 66 70 76 79 82 83 81 82 85 86 88 93 98 100 100 86 70 75 71 66 62
Wind_Speed
54 55 55 57 59 60 63 63 64 65 65 66 67 67 68 69 70 69 72 74 75 77 79 81 83 82 86
54 57 56 58 60 62 65 66 67 68 67 68 69 70 71 74 74 76 77 78 80 81 83 85 87 85 88
53 60 63 63 64 66 68 68 69 71 72 72 73 74 75 77 81 81 83 84 86 88 88 90 91 90 93
63 63 66 72 73 74 75 76 75 75 76 76 76 77 78 79 81 84 87 88 89 91 92 91 94 95 96
75 76 75 78 81 82 80 80 79 82 81 82 82 82 84 85 87 88 90 92 94 94 96 96 98 99 99
83 83 83 85 87 88 89 89 88 86 89 88 89 90 89 91 92 91 93 95 97 97 100 102 102 101 101
89 90 90 93 94 92 92 92 94 94 94 92 94 94 95 95 96 97 96 96 99 103 106 105 105 104 104
98 94 95 95 104 92 95 96 96 96 98 96 95 98 99 99 100 99 99 101 104 105 107 108 107 107 106
102 99 103 105 105 106 104 103 99 101 101 103 102 102 101 102 103 104 106 108 108 109 108 108 111 109 110
106 107 106 114 113 113 112 112 111 108 108 109 107 109 106 106 109 109 111 111 110 111 111 113 112 112 112
110 113 115 116 118 118 117 115 114 112 113 113 113 116 117 114 114 114 114 115 115 116 116 116 115 113 114
115 116 118 120 121 123 123 123 122 121 120 121 121 122 123 122 122 121 120 119 119 119 119 117 116 117 114
120 121 123 123 124 126 128 128 129 130 130 128 126 124 124 123 122 122 122 122 122 121 119 118 117 117 115
121 121 122 122 122 123 123 124 125 127 127 128 127 127 126 126 124 122 123 122 121 121 120 120 119 120 117
114 112 113 115 115 115 116 117 117 115 118 119 120 117 116 117 118 120 122 123 122 122 120 120 117 116 112
94 95 94 94 93 95 98 99 100 102 103 104 105 106 105 105 106 107 110 113 115 115 116 115 112 108 105
97 99 99 99 99 99 101 102 103 105 107 108 109 110 110 108 106 105 106 106 106 107 108 106 105 101 97
Wind_Direction
291 291 291 291 291 290 290 292 293 293 294 294 295 297 297 299 300 299 299 300 301 302 303 304 304 308 308
285 286 286 287 287 288 290 292 292 293 294 295 295 296 297 297 297 298 300 300 301 301 302 304 306 307 308
278 282 284 285 286 286 286 287 288 290 291 292 294 294 295 295 297 299 299 300 302 303 304 306 307 310 311
276 275 278 280 281 282 284 285 287 288 290 291 292 294 296 296 296 297 299 300 301 303 305 308 309 311 311
279 279 279 280 281 283 285 285 286 288 290 292 295 296 296 297 297 298 299 301 302 303 306 308 309 311 311
282 283 282 282 283 285 285 285 288 289 291 293 294 295 295 296 298 299 300 301 303 306 307 307 309 309 308
283 284 285 285 285 286 287 287 287 288 288 290 292 294 295 297 299 299 299 302 305 305 307 306 306 307 308
281 282 283 284 283 282 284 285 286 287 289 290 291 292 294 296 295 297 300 302 303 304 302 303 305 305 307
283 284 285 284 284 286 286 283 284 286 288 289 289 290 291 292 295 297 299 300 299 299 300 302 302 304 304
280 281 280 282 282 283 284 286 287 286 286 288 288 289 291 293 294 295 295 296 298 298 299 299 301 301 304
279 279 281 282 283 285 286 287 287 288 289 290 291 291 292 293 293 294 294 295 297 297 298 299 299 301 302
282 282 283 284 286 287 287 287 288 289 290 290 290 290 292 292 291 291 292 292 294 296 294 296 298 298 302
278 279 279 280 281 281 282 283 284 284 286 286 286 287 287 287 288 288 289 290 290 291 293 294 295 298 298
277 278 278 278 279 280 281 282 282 283 283 283 284 285 286 287 287 287 286 288 290 290 291 293 294 295 297
280 279 279 279 279 279 280 280 282 283 283 284 286 287 287 287 286 286 287 287 287 288 290 292 293 293 297
282 282 283 283 283 284 284 284 284 285 285 286 287 288 289 289 289 288 288 287 287 287 287 290 292 292 293
284 285 286 286 286 286 286 287 288 288 288 289 288 288 287 287 287 288 287 286 286 286 286 286 288 291 293